Time,TemperatureF,DewpointF,PressureIn,WindDirection,WindDirectionDegrees,WindSpeedMPH,WindSpeedGustMPH,Humidity,HourlyPrecipIn,Conditions,Clouds,dailyrainin,SoftwareType,DateUTC
2013-03-31 00:02:00,44.0,36.0,30.21,NW,315,3.0,5.0,73,0.00,,,-99.99,,2013-03-31 06:02:00,
2013-03-31 00:12:00,43.0,36.0,30.23,WNW,293,3.0,4.0,74,0.00,,,-99.99,,2013-03-31 06:12:00,
2013-03-31 00:22:00,43.0,36.0,30.21,WNW,299,3.0,4.0,75,0.00,,,-99.99,,2013-03-31 06:22:00,
2013-03-31 00:32:00,43.0,35.0,30.21,NNW,334,2.0,5.0,75,0.00,,,-99.99,,2013-03-31 06:32:00,
2013-03-31 00:42:00,42.0,35.0,30.21,NNE,30,1.0,3.0,76,0.00,,,-99.99,,2013-03-31 06:42:00,
2013-03-31 00:52:00,42.0,35.0,30.21,SE,124,1.0,3.0,76,0.00,,,-99.99,,2013-03-31 06:52:00,
2013-03-31 01:02:00,42.0,35.0,30.21,SW,216,1.0,3.0,75,0.00,,,-99.99,,2013-03-31 07:02:00,
2013-03-31 01:12:00,42.0,35.0,30.20,WSW,240,0.0,1.0,76,0.00,,,-99.99,,2013-03-31 07:12:00,
2013-03-31 01:22:00,41.0,35.0,30.20,ESE,120,0.0,1.0,76,0.00,,,-99.99,,2013-03-31 07:22:00,
2013-03-31 01:32:00,40.0,35.0,30.20,East,92,2.0,3.0,81,0.00,,,-99.99,,2013-03-31 07:32:00,
2013-03-31 01:42:00,40.0,35.0,30.20,SE,135,2.0,2.0,80,0.00,,,-99.99,,2013-03-31 07:42:00,
2013-03-31 01:52:00,40.0,35.0,30.20,SSE,150,2.0,3.0,80,0.00,,,-99.99,,2013-03-31 07:52:00,
2013-03-31 02:02:00,40.0,35.0,30.19,SSE,150,3.0,4.0,80,0.00,,,-99.99,,2013-03-31 08:02:00,
2013-03-31 02:12:00,39.0,34.0,30.19,SSE,156,3.0,4.0,83,0.00,,,-99.99,,2013-03-31 08:12:00,
2013-03-31 02:22:00,39.0,34.0,30.19,SSE,168,3.0,4.0,83,0.00,,,-99.99,,2013-03-31 08:22:00,
2013-03-31 02:32:00,39.0,34.0,30.18,SSE,150,3.0,4.0,84,0.00,,,-99.99,,2013-03-31 08:32:00,
2013-03-31 02:42:00,38.0,34.0,30.18,SSE,160,4.0,5.0,84,0.00,,,-99.99,,2013-03-31 08:42:00,
2013-03-31 02:52:00,39.0,35.0,30.17,SSE,160,3.0,5.0,85,0.00,,,-99.99,,2013-03-31 08:52:00,
2013-03-31 03:02:00,39.0,34.0,30.17,South,170,3.0,4.0,84,0.00,,,-99.99,,2013-03-31 09:02:00,
2013-03-31 03:12:00,39.0,34.0,30.15,South,169,3.0,4.0,85,0.00,,,-99.99,,2013-03-31 09:12:00,
2013-03-31 03:22:00,39.0,34.0,30.15,SSE,154,3.0,5.0,82,0.00,,,-99.99,,2013-03-31 09:22:00,
2013-03-31 03:33:00,40.0,35.0,30.15,SSE,160,5.0,5.0,83,0.00,,,-99.99,,2013-03-31 09:33:00,
2013-03-31 03:42:00,40.0,35.0,30.14,SSE,157,5.0,5.0,82,0.00,,,-99.99,,2013-03-31 09:42:00,
2013-03-31 03:53:00,38.0,34.0,30.14,SSE,167,2.0,5.0,83,0.00,,,-99.99,,2013-03-31 09:53:00,
2013-03-31 04:03:00,39.0,34.0,30.14,SSE,151,4.0,6.0,83,0.00,,,-99.99,,2013-03-31 10:03:00,
2013-03-31 04:13:00,38.0,33.0,30.14,SSE,163,7.0,8.0,82,0.00,,,-99.99,,2013-03-31 10:13:00,
2013-03-31 04:23:00,38.0,33.0,30.13,SSE,154,5.0,8.0,83,0.00,,,-99.99,,2013-03-31 10:23:00,
2013-03-31 04:32:00,38.0,33.0,30.13,South,172,4.0,6.0,85,0.00,,,-99.99,,2013-03-31 10:32:00,
2013-03-31 04:42:00,38.0,34.0,30.13,SSW,198,3.0,7.0,84,0.00,,,-99.99,,2013-03-31 10:42:00,
2013-03-31 04:52:00,38.0,34.0,30.13,South,182,5.0,8.0,85,0.00,,,-99.99,,2013-03-31 10:52:00,
2013-03-31 05:02:00,37.0,33.0,30.13,SE,143,3.0,6.0,85,0.00,,,-99.99,,2013-03-31 11:02:00,
2013-03-31 05:12:00,37.0,33.0,30.12,South,170,4.0,5.0,86,0.00,,,-99.99,,2013-03-31 11:12:00,
2013-03-31 05:23:00,37.0,32.0,30.12,South,177,7.0,7.0,83,0.00,,,-99.99,,2013-03-31 11:23:00,
2013-03-31 05:32:00,37.0,32.0,30.12,SSE,164,5.0,7.0,83,0.00,,,-99.99,,2013-03-31 11:32:00,
2013-03-31 05:42:00,36.0,32.0,30.11,SSE,155,4.0,7.0,83,0.00,,,-99.99,,2013-03-31 11:42:00,
2013-03-31 05:52:00,36.0,32.0,30.11,SSE,155,6.0,8.0,84,0.00,,,-99.99,,2013-03-31 11:52:00,
2013-03-31 06:02:00,36.0,32.0,30.11,SE,146,6.0,8.0,85,0.00,,,-99.99,,2013-03-31 12:02:00,
2013-03-31 06:12:00,36.0,32.0,30.10,SSE,149,5.0,8.0,84,0.00,,,-99.99,,2013-03-31 12:12:00,
2013-03-31 06:22:00,36.0,31.0,30.10,SSE,148,6.0,7.0,84,0.00,,,-99.99,,2013-03-31 12:22:00,
2013-03-31 06:33:00,36.0,32.0,30.10,South,169,6.0,7.0,84,0.00,,,-99.99,,2013-03-31 12:33:00,
2013-03-31 06:42:00,36.0,31.0,30.10,South,185,4.0,6.0,83,0.00,,,-99.99,,2013-03-31 12:42:00,
2013-03-31 06:52:00,36.0,32.0,30.10,South,172,3.0,5.0,84,0.00,,,-99.99,,2013-03-31 12:52:00,
2013-03-31 07:02:00,35.0,31.0,30.10,SE,145,4.0,6.0,83,0.00,,,-99.99,,2013-03-31 13:02:00,
2013-03-31 07:12:00,35.0,31.0,30.08,SSE,164,3.0,6.0,86,0.00,,,-99.99,,2013-03-31 13:12:00,
2013-03-31 07:22:00,36.0,31.0,30.08,SSE,167,4.0,5.0,84,0.00,,,-99.99,,2013-03-31 13:22:00,
2013-03-31 07:32:00,36.0,31.0,30.08,South,184,4.0,7.0,82,0.00,,,-99.99,,2013-03-31 13:32:00,
2013-03-31 07:42:00,37.0,31.0,30.08,SSE,154,4.0,7.0,80,0.00,,,-99.99,,2013-03-31 13:42:00,
2013-03-31 07:52:00,38.0,31.0,30.08,South,174,6.0,7.0,78,0.00,,,-99.99,,2013-03-31 13:52:00,
2013-03-31 08:02:00,38.0,31.0,30.07,South,172,7.0,8.0,76,0.00,,,-99.99,,2013-03-31 14:02:00,
2013-03-31 08:12:00,40.0,32.0,30.07,SSE,167,7.0,9.0,74,0.00,,,-99.99,,2013-03-31 14:12:00,
2013-03-31 08:22:00,41.0,32.0,30.07,South,181,6.0,9.0,71,0.00,,,-99.99,,2013-03-31 14:22:00,
2013-03-31 08:32:00,42.0,32.0,30.06,South,172,5.0,10.0,69,0.00,,,-99.99,,2013-03-31 14:32:00,
2013-03-31 08:42:00,43.0,32.0,30.06,South,190,8.0,14.0,65,0.00,,,-99.99,,2013-03-31 14:42:00,
2013-03-31 08:52:00,44.0,32.0,30.05,SSW,199,4.0,13.0,62,0.00,,,-99.99,,2013-03-31 14:52:00,
2013-03-31 09:02:00,45.0,32.0,30.05,SSW,193,6.0,10.0,60,0.00,,,-99.99,,2013-03-31 15:02:00,
2013-03-31 09:12:00,46.0,32.0,30.05,SSW,202,8.0,13.0,57,0.00,,,-99.99,,2013-03-31 15:12:00,
2013-03-31 09:22:00,47.0,31.0,30.04,SSW,207,11.0,15.0,53,0.00,,,-99.99,,2013-03-31 15:22:00,
2013-03-31 09:33:00,48.0,30.0,30.04,SSW,201,10.0,14.0,49,0.00,,,-99.99,,2013-03-31 15:33:00,
2013-03-31 09:43:00,50.0,30.0,30.04,SSW,203,10.0,13.0,47,0.00,,,-99.99,,2013-03-31 15:43:00,
2013-03-31 09:53:00,51.0,29.0,30.03,South,184,8.0,12.0,43,0.00,,,-99.99,,2013-03-31 15:53:00,
2013-03-31 10:03:00,52.0,29.0,30.03,SSW,205,7.0,13.0,41,0.00,,,-99.99,,2013-03-31 16:03:00,
2013-03-31 10:13:00,53.0,25.0,30.01,South,170,8.0,14.0,34,0.00,,,-99.99,,2013-03-31 16:13:00,
2013-03-31 10:23:00,54.0,25.0,30.01,South,178,6.0,15.0,32,0.00,,,-99.99,,2013-03-31 16:23:00,
2013-03-31 10:33:00,56.0,24.0,30.01,South,190,7.0,11.0,30,0.00,,,-99.99,,2013-03-31 16:33:00,
2013-03-31 10:42:00,56.0,22.0,30.01,South,174,8.0,12.0,27,0.00,,,-99.99,,2013-03-31 16:42:00,
2013-03-31 10:53:00,57.0,20.0,30.00,South,175,6.0,14.0,24,0.00,,,-99.99,,2013-03-31 16:53:00,
2013-03-31 11:02:00,58.0,20.0,30.00,South,173,8.0,12.0,23,0.00,,,-99.99,,2013-03-31 17:02:00,
2013-03-31 11:12:00,59.0,18.0,30.00,South,171,8.0,13.0,21,0.00,,,-99.99,,2013-03-31 17:12:00,
2013-03-31 11:22:00,60.0,18.0,30.00,South,169,9.0,10.0,20,0.00,,,-99.99,,2013-03-31 17:22:00,
2013-03-31 11:32:00,61.0,16.0,29.99,South,187,8.0,11.0,17,0.00,,,-99.99,,2013-03-31 17:32:00,
2013-03-31 11:42:00,63.0,17.0,29.99,SSW,196,4.0,10.0,17,0.00,,,-99.99,,2013-03-31 17:42:00,
2013-03-31 11:52:00,63.0,13.0,29.99,South,191,2.0,12.0,14,0.00,,,-99.99,,2013-03-31 17:52:00,
2013-03-31 12:02:00,65.0,12.0,29.99,SSW,200,4.0,11.0,13,0.00,,,-99.99,,2013-03-31 18:02:00,
2013-03-31 12:12:00,64.0,13.0,29.99,SSW,213,7.0,9.0,14,0.00,,,-99.99,,2013-03-31 18:12:00,
2013-03-31 12:22:00,64.0,11.0,29.98,ESE,103,2.0,10.0,12,0.00,,,-99.99,,2013-03-31 18:22:00,
2013-03-31 12:32:00,66.0,13.0,29.98,WSW,241,5.0,10.0,13,0.00,,,-99.99,,2013-03-31 18:32:00,
2013-03-31 12:42:00,65.0,12.0,29.98,North,349,3.0,11.0,12,0.00,,,-99.99,,2013-03-31 18:42:00,
2013-03-31 12:52:00,66.0,12.0,29.98,NNW,338,6.0,10.0,12,0.00,,,-99.99,,2013-03-31 18:52:00,
2013-03-31 13:03:00,66.0,11.0,29.98,ESE,104,1.0,11.0,11,0.00,,,-99.99,,2013-03-31 19:03:00,
2013-03-31 13:12:00,68.0,13.0,29.97,NW,308,5.0,8.0,11,0.00,,,-99.99,,2013-03-31 19:12:00,
2013-03-31 13:22:00,70.0,13.0,29.97,NE,36,2.0,11.0,12,0.00,,,-99.99,,2013-03-31 19:22:00,
2013-03-31 13:32:00,68.0,12.0,29.97,South,172,3.0,13.0,11,0.00,,,-99.99,,2013-03-31 19:32:00,
2013-03-31 13:42:00,68.0,13.0,29.96,NE,56,4.0,12.0,12,0.00,,,-99.99,,2013-03-31 19:42:00,
2013-03-31 13:53:00,69.0,10.0,29.96,SSW,196,2.0,11.0,10,0.00,,,-99.99,,2013-03-31 19:53:00,
2013-03-31 14:02:00,70.0,14.0,29.96,North,1,7.0,18.0,12,0.00,,,-99.99,,2013-03-31 20:02:00,
2013-03-31 14:12:00,69.0,13.0,29.96,ENE,64,3.0,12.0,12,0.00,,,-99.99,,2013-03-31 20:12:00,
2013-03-31 14:22:00,69.0,15.0,29.96,NNE,16,5.0,17.0,12,0.00,,,-99.99,,2013-03-31 20:22:00,
2013-03-31 14:33:00,70.0,15.0,29.94,NNE,20,6.0,14.0,12,0.00,,,-99.99,,2013-03-31 20:33:00,
2013-03-31 14:42:00,69.0,14.0,29.94,NNE,23,10.0,16.0,12,0.00,,,-99.99,,2013-03-31 20:42:00,
2013-03-31 14:52:00,70.0,16.0,29.94,ENE,60,16.0,17.0,13,0.00,,,-99.99,,2013-03-31 20:52:00,
2013-03-31 15:02:00,70.0,16.0,29.94,ENE,61,12.0,19.0,13,0.00,,,-99.99,,2013-03-31 21:02:00,
2013-03-31 15:12:00,68.0,15.0,29.94,ENE,62,11.0,17.0,12,0.00,,,-99.99,,2013-03-31 21:12:00,
2013-03-31 15:22:00,69.0,15.0,29.94,NE,54,9.0,18.0,13,0.00,,,-99.99,,2013-03-31 21:22:00,
2013-03-31 15:33:00,69.0,15.0,29.94,NE,40,10.0,19.0,13,0.00,,,-99.99,,2013-03-31 21:33:00,
2013-03-31 15:43:00,70.0,17.0,29.94,North,356,8.0,16.0,13,0.00,,,-99.99,,2013-03-31 21:43:00,
2013-03-31 15:53:00,69.0,16.0,29.94,NNE,32,10.0,20.0,13,0.00,,,-99.99,,2013-03-31 21:53:00,
2013-03-31 16:03:00,69.0,15.0,29.94,North,3,7.0,17.0,13,0.00,,,-99.99,,2013-03-31 22:03:00,
2013-03-31 16:13:00,69.0,16.0,29.93,NNE,12,7.0,22.0,13,0.00,,,-99.99,,2013-03-31 22:13:00,
2013-03-31 16:23:00,68.0,16.0,29.93,NE,52,10.0,19.0,14,0.00,,,-99.99,,2013-03-31 22:23:00,
2013-03-31 16:33:00,68.0,16.0,29.93,ENE,74,10.0,16.0,13,0.00,,,-99.99,,2013-03-31 22:33:00,
2013-03-31 16:42:00,68.0,16.0,29.93,NNW,344,3.0,12.0,13,0.00,,,-99.99,,2013-03-31 22:42:00,
2013-03-31 16:52:00,68.0,16.0,29.93,East,92,5.0,10.0,13,0.00,,,-99.99,,2013-03-31 22:52:00,
2013-03-31 17:03:00,68.0,16.0,29.93,ENE,64,10.0,14.0,13,0.00,,,-99.99,,2013-03-31 23:03:00,
2013-03-31 17:12:00,68.0,16.0,29.93,NNE,24,9.0,14.0,14,0.00,,,-99.99,,2013-03-31 23:12:00,
2013-03-31 17:22:00,68.0,18.0,29.93,NE,55,9.0,13.0,15,0.00,,,-99.99,,2013-03-31 23:22:00,
2013-03-31 17:32:00,67.0,17.0,29.93,NE,52,4.0,13.0,14,0.00,,,-99.99,,2013-03-31 23:32:00,
2013-03-31 17:42:00,67.0,17.0,29.93,ENE,64,8.0,15.0,14,0.00,,,-99.99,,2013-03-31 23:42:00,
2013-03-31 17:52:00,67.0,16.0,29.93,NE,38,7.0,13.0,14,0.00,,,-99.99,,2013-03-31 23:52:00,
2013-03-31 18:02:00,67.0,18.0,29.94,NNE,26,6.0,10.0,15,0.00,,,-99.99,,2013-04-01 00:02:00,
2013-03-31 18:12:00,66.0,20.0,29.94,ENE,73,10.0,13.0,17,0.00,,,-99.99,,2013-04-01 00:12:00,
2013-03-31 18:22:00,65.0,19.0,29.94,ENE,70,10.0,15.0,17,0.00,,,-99.99,,2013-04-01 00:22:00,
2013-03-31 18:32:00,65.0,18.0,29.94,ENE,69,7.0,14.0,16,0.00,,,-99.99,,2013-04-01 00:32:00,
2013-03-31 18:42:00,64.0,19.0,29.96,East,80,7.0,13.0,17,0.00,,,-99.99,,2013-04-01 00:42:00,
2013-03-31 18:52:00,64.0,18.0,29.96,ENE,69,10.0,13.0,17,0.00,,,-99.99,,2013-04-01 00:52:00,
2013-03-31 19:02:00,63.0,18.0,29.96,East,82,7.0,11.0,17,0.00,,,-99.99,,2013-04-01 01:02:00,
2013-03-31 19:12:00,62.0,18.0,29.96,East,84,9.0,14.0,18,0.00,,,-99.99,,2013-04-01 01:12:00,
2013-03-31 19:22:00,61.0,19.0,29.97,East,85,7.0,12.0,20,0.00,,,-99.99,,2013-04-01 01:22:00,
2013-03-31 19:32:00,61.0,18.0,29.97,East,80,6.0,10.0,19,0.00,,,-99.99,,2013-04-01 01:32:00,
2013-03-31 19:42:00,60.0,18.0,29.97,East,92,5.0,7.0,19,0.00,,,-99.99,,2013-04-01 01:42:00,
2013-03-31 19:52:00,59.0,19.0,29.97,East,86,5.0,9.0,20,0.00,,,-99.99,,2013-04-01 01:52:00,
2013-03-31 20:02:00,59.0,19.0,29.98,East,90,6.0,7.0,20,0.00,,,-99.99,,2013-04-01 02:02:00,
2013-03-31 20:12:00,58.0,20.0,29.98,East,84,6.0,7.0,22,0.00,,,-99.99,,2013-04-01 02:12:00,
2013-03-31 20:22:00,57.0,20.0,29.98,East,90,4.0,6.0,23,0.00,,,-99.99,,2013-04-01 02:22:00,
2013-03-31 20:32:00,57.0,19.0,29.98,East,101,4.0,4.0,23,0.00,,,-99.99,,2013-04-01 02:32:00,
2013-03-31 20:42:00,57.0,19.0,29.98,SE,126,5.0,6.0,23,0.00,,,-99.99,,2013-04-01 02:42:00,
2013-03-31 20:52:00,55.0,21.0,29.98,East,91,3.0,5.0,25,0.00,,,-99.99,,2013-04-01 02:52:00,
2013-03-31 21:02:00,55.0,20.0,29.98,East,101,3.0,4.0,26,0.00,,,-99.99,,2013-04-01 03:02:00,
2013-03-31 21:12:00,55.0,21.0,29.99,SW,216,5.0,5.0,26,0.00,,,-99.99,,2013-04-01 03:12:00,
2013-03-31 21:22:00,53.0,24.0,30.01,NNE,31,14.0,15.0,31,0.00,,,-99.99,,2013-04-01 03:22:00,
2013-03-31 21:33:00,56.0,21.0,30.03,ENE,63,12.0,18.0,26,0.00,,,-99.99,,2013-04-01 03:33:00,
2013-03-31 21:43:00,55.0,20.0,30.03,East,82,17.0,20.0,25,0.00,,,-99.99,,2013-04-01 03:43:00,
2013-03-31 21:53:00,54.0,20.0,30.03,East,90,9.0,20.0,26,0.00,,,-99.99,,2013-04-01 03:53:00,
2013-03-31 22:02:00,54.0,21.0,30.04,ENE,74,10.0,14.0,27,0.00,,,-99.99,,2013-04-01 04:02:00,
2013-03-31 22:13:00,53.0,20.0,30.05,ENE,70,11.0,15.0,28,0.00,,,-99.99,,2013-04-01 04:13:00,
2013-03-31 22:23:00,53.0,20.0,30.06,ENE,76,6.0,14.0,27,0.00,,,-99.99,,2013-04-01 04:23:00,
2013-03-31 22:32:00,53.0,20.0,30.07,NE,36,7.0,14.0,27,0.00,,,-99.99,,2013-04-01 04:32:00,
2013-03-31 22:43:00,52.0,20.0,30.07,NNE,16,6.0,13.0,28,0.00,,,-99.99,,2013-04-01 04:43:00,
2013-03-31 22:52:00,51.0,20.0,30.08,North,0,7.0,9.0,29,0.00,,,-99.99,,2013-04-01 04:52:00,
2013-03-31 23:02:00,50.0,22.0,30.08,North,358,7.0,9.0,33,0.00,,,-99.99,,2013-04-01 05:02:00,
2013-03-31 23:12:00,50.0,22.0,30.10,North,9,8.0,11.0,33,0.00,,,-99.99,,2013-04-01 05:12:00,
2013-03-31 23:22:00,50.0,22.0,30.11,North,350,6.0,8.0,33,0.00,,,-99.99,,2013-04-01 05:22:00,
2013-03-31 23:32:00,50.0,22.0,30.11,North,349,4.0,8.0,33,0.00,,,-99.99,,2013-04-01 05:32:00,
2013-03-31 23:42:00,50.0,22.0,30.12,NNW,344,8.0,17.0,33,0.00,,,-99.99,,2013-04-01 05:42:00,
2013-03-31 23:52:00,49.0,22.0,30.12,NNE,29,5.0,15.0,34,0.00,,,-99.99,,2013-04-01 05:52:00,